Retour au catalogue

THORAD AGENA D DEB

ActifSSO
NORAD 4644·DEBRIS·🇺🇸 United States

Lancé Apr 8, 1970 depuis Vandenberg Space Force Base

Loading…

Prochains Passages (prochaines 24 heures)

TLE

FraisSource: Space-Track

Époque: Sep 14, 2026, 23:39 UTC

1 04644U 70025AC  26257.98604308  .00000070  00000-0  15029-3 0  9999
2 04644  99.5419 149.5943 0014257  66.1182 311.0485 13.60571756789394

Suivez THORAD AGENA D DEB en temps réel avec AllMySat

Download on the App Store